This is the latest recevied weather packets stored in our database for station/object OK1FET-5. If no packets are shown the sender has not sent any weather packets the latest 1 day(s).
| Time | Temp. | Humidity | Pressure | Rain* | Wind** | Luminosity | Snow |
|---|---|---|---|---|---|---|---|
| 1778034359 | 11.11° C | 95% | 1006.8 hPa | - | - | - | - |
| 1778034065 | 11.11° C | 96% | 1006.8 hPa | - | - | - | - |
| 1778033771 | 11.11° C | 98% | 1006.8 hPa | - | - | - | - |
| 1778033477 | 11.11° C | 97% | 1006.8 hPa | - | - | - | - |
| 1778032594 | 11.11° C | 100% | 1006.8 hPa | - | - | - | - |
| 1778032300 | 11.11° C | 100% | 1006.8 hPa | - | - | - | - |
| 1778032006 | 11.11° C | 100% | 1006.8 hPa | - | - | - | - |
| 1778031712 | 11.11° C | 100% | 1006.7 hPa | - | - | - | - |
| 1778031417 | 11.11° C | 100% | 1006.7 hPa | - | - | - | - |
| 1778031124 | 11.11° C | 100% | 1006.7 hPa | - | - | - | - |
| 1778030829 | 11.11° C | 100% | 1006.6 hPa | - | - | - | - |
| 1778030241 | 11.11° C | 100% | 1006.5 hPa | - | - | - | - |
| 1778029947 | 11.11° C | 100% | 1006.5 hPa | - | - | - | - |
| 1778029652 | 11.67° C | 100% | 1006.6 hPa | - | - | - | - |
| 1778029358 | 11.67° C | 97% | 1006.6 hPa | - | - | - | - |
| 1778029064 | 11.67° C | 96% | 1006.5 hPa | - | - | - | - |
| 1778028770 | 11.67° C | 94% | 1006.6 hPa | - | - | - | - |
| 1778028476 | 11.67° C | 94% | 1006.4 hPa | - | - | - | - |
| 1778027887 | 11.67° C | 96% | 1006.7 hPa | - | - | - | - |
| 1778027593 | 11.67° C | 94% | 1006.8 hPa | - | - | - | - |
| 1778027299 | 11.67° C | 92% | 1006.7 hPa | - | - | - | - |
| 1778026711 | 11.67° C | 94% | 1006.5 hPa | - | - | - | - |
| 1778026710 | 11.67° C | 94% | 1006.5 hPa | - | - | - | - |
| 1778026416 | 11.67° C | 93% | 1006.6 hPa | - | - | - | - |
| 1778026122 | 11.67° C | 94% | 1006.6 hPa | - | - | - | - |
* Rain since midnight (hover to see other rain measurements)
** Current wind speed in m/s (hover to see current wind gust speed)